TimeMST,TemperatureF,Dew PointF,Humidity,Sea Level PressureIn,VisibilityMPH,Wind Direction,Wind SpeedMPH,Gust SpeedMPH,PrecipitationIn,Events,Conditions,WindDirDegrees,DateUTC
12:15 AM,32.0,30.2,93,29.69,3.0,SW,11.5,-,N/A,,Unknown,230,2012-11-10 07:15:00
12:35 AM,32.0,28.4,87,29.69,1.8,WSW,9.2,-,N/A,,Overcast,250,2012-11-10 07:35:00
12:55 AM,30.2,28.4,93,29.68,1.8,WSW,10.4,-,N/A,,Overcast,250,2012-11-10 07:55:00
1:15 AM,32.0,28.4,87,29.68,3.0,West,10.4,-,N/A,,Overcast,260,2012-11-10 08:15:00
1:35 AM,32.0,28.4,87,29.68,5.0,West,10.4,-,N/A,,Overcast,260,2012-11-10 08:35:00
1:55 AM,32.0,28.4,87,29.68,5.0,WSW,8.1,-,0.03,,Overcast,250,2012-11-10 08:55:00
2:15 AM,32.0,28.4,87,29.68,9.0,WSW,4.6,-,N/A,,Overcast,250,2012-11-10 09:15:00
2:35 AM,32.0,28.4,87,29.68,5.0,Calm,Calm,-,N/A,,Overcast,0,2012-11-10 09:35:00
2:55 AM,32.0,28.4,87,29.68,1.8,Calm,Calm,-,0.01,,Overcast,0,2012-11-10 09:55:00
3:15 AM,30.2,28.4,93,29.68,1.0,Calm,Calm,-,N/A,,Overcast,0,2012-11-10 10:15:00
3:35 AM,30.2,28.4,93,29.68,0.2,Calm,Calm,-,N/A,,Overcast,0,2012-11-10 10:35:00
3:55 AM,30.2,28.4,93,29.68,1.0,Calm,Calm,-,N/A,,Overcast,0,2012-11-10 10:55:00
4:15 AM,30.2,28.4,93,29.68,2.5,Calm,Calm,-,N/A,,Mostly Cloudy,0,2012-11-10 11:15:00
5:35 AM,30.2,28.4,93,29.70,3.0,Calm,Calm,-,0.03,,Overcast,0,2012-11-10 12:35:00
5:55 AM,30.2,26.6,86,29.70,7.0,Calm,Calm,-,0.04,,Overcast,0,2012-11-10 12:55:00
6:15 AM,30.2,26.6,86,29.71,6.0,Calm,Calm,-,0.01,,Overcast,0,2012-11-10 13:15:00
6:35 AM,30.2,26.6,86,29.71,10.0,Calm,Calm,-,0.02,,Mostly Cloudy,0,2012-11-10 13:35:00
6:55 AM,30.2,28.4,93,29.71,5.0,Calm,Calm,-,0.02,,Mostly Cloudy,0,2012-11-10 13:55:00
7:51 AM,30.2,26.6,86,29.73,15.0,Calm,Calm,-,N/A,,Overcast,0,2012-11-10 14:51:00
8:51 AM,30.2,28.4,93,29.76,15.0,Calm,Calm,-,N/A,,Mostly Cloudy,0,2012-11-10 15:51:00
9:55 AM,30.2,26.6,86,29.78,15.0,Calm,Calm,-,N/A,,Overcast,0,2012-11-10 16:55:00
10:50 AM,32.0,24.8,75,29.80,15.0,NW,9.2,-,N/A,,Overcast,320,2012-11-10 17:50:00
11:59 AM,32.0,23.0,69,29.82,15.0,NW,12.7,-,N/A,,Scattered Clouds,320,2012-11-10 18:59:00
12:53 PM,32.0,21.2,64,29.82,15.0,NW,10.4,-,N/A,Tornado,Funnel Cloud,320,2012-11-10 19:53:00
1:01 PM,32.0,24.8,75,29.82,15.0,NNW,8.1,-,N/A,,Mostly Cloudy,340,2012-11-10 20:01:00
1:48 PM,32.0,21.2,64,29.83,15.0,NNW,11.5,-,N/A,,Mostly Cloudy,330,2012-11-10 20:48:00
2:59 PM,32.0,21.2,64,29.86,15.0,Variable,5.8,-,N/A,,Mostly Cloudy,0,2012-11-10 21:59:00
3:47 PM,32.0,19.4,60,29.87,15.0,NNW,8.1,-,N/A,,Mostly Cloudy,330,2012-11-10 22:47:00
4:48 PM,30.2,15.8,55,29.88,15.0,NW,5.8,-,N/A,,Mostly Cloudy,320,2012-11-10 23:48:00
5:47 PM,28.4,19.4,69,29.90,15.0,North,4.6,-,N/A,,Scattered Clouds,350,2012-11-11 00:47:00
6:52 PM,26.6,23.0,86,29.93,15.0,Calm,Calm,-,N/A,,Mostly Cloudy,0,2012-11-11 01:52:00
7:55 PM,24.8,21.2,86,29.95,15.0,Calm,Calm,-,N/A,,Mostly Cloudy,0,2012-11-11 02:55:00
9:15 PM,24.8,21.2,86,29.96,10.0,Calm,Calm,-,N/A,,Overcast,0,2012-11-11 04:15:00
9:35 PM,26.6,21.2,80,29.96,10.0,Calm,Calm,-,N/A,,Overcast,0,2012-11-11 04:35:00
9:55 PM,26.6,21.2,80,29.97,10.0,Calm,Calm,-,N/A,,Overcast,0,2012-11-11 04:55:00
10:15 PM,26.6,21.2,80,29.98,10.0,Calm,Calm,-,N/A,,Overcast,0,2012-11-11 05:15:00
10:35 PM,26.6,21.2,80,29.98,7.0,Calm,Calm,-,N/A,,Overcast,0,2012-11-11 05:35:00
10:55 PM,26.6,21.2,80,29.98,10.0,SW,9.2,-,N/A,,Scattered Clouds,220,2012-11-11 05:55:00
11:15 PM,26.6,21.2,80,29.99,10.0,ESE,8.1,-,N/A,,Clear,110,2012-11-11 06:15:00
11:35 PM,28.4,23.0,80,30.00,10.0,Calm,Calm,-,N/A,,Partly Cloudy,0,2012-11-11 06:35:00
11:55 PM,30.2,23.0,75,30.00,10.0,WSW,11.5,-,N/A,,Mostly Cloudy,240,2012-11-11 06:55:00